Location: Maccacari
(45.1333°N, 11.1333°E)
Time: 10:37:34
(UTC+00:00)

A-11 Canister half - Pass Details

Date: 22 January 2021
Orbit: 1524 x 1684 km, 47.3° (Epoch: 24 February)

Event Time Altitude Azimuth Distance (km) Brightness Sun altitude
Rises 21:24:39 0° 293° (WNW) 4,800 12.1 -53.9°
Reaches altitude 10° 21:28:06 10° 284° (WNW) 3,835 11.4 -54.4°
Enters shadow 21:31:25 21° 270° (W) 3,056 10.7 -54.9°
